[[{"header":{"parameterUnit":"m.s-1","parameterCategory":1,"la1":30.2991,"la2":30.254,"lo1":-89.0895,"lo2":-89.0444,"dy":0.0017,"dx":0.0017,"nx":28,"ny":28,"refTime":"2023-11-08T09:00:00:Z","depth":0,"parameterNumber":2,"parameterNumberName":"U-component_of_WINDS"},"data":[0,0,0,0,0,0,0,0,0,0,0,0,0,0,0,0,0,0,0,0,0,0,0,0,0,0,0,0,0,0,0,0,0,0,0,0,0,0,0,0,0,0,0,0,0,0,0,0,0,0,0,0,0,0,0,0,0,0,0.2414,0.2415,0,0.2485,0.2486,0.2486,0.2514,0.2514,0.2514,0.2514,0.2586,0.2588,0.2591,0,0,0,0,0,0,0,0,0,0,0,0,0,0.2304,0.2306,0.2414,0.2415,0.2416,0.2485,0.2486,0.2487,0.2514,0.2514,0.2514,0.2513,0.2586,0.2588,0.2591,0,0,0,0,0,0,0,0,0,0,0,0,0,0.2361,0.2307,0.2414,0.2438,0.2441,0.2485,0.2486,0.2487,0.2514,0.2514,0.2514,0.2513,0.2585,0.2588,0.2591,0.2616,0,0,0.2601,0.2602,0,0,0,0,0,0,0,0,0.2358,0.2365,0.2434,0.2436,0.244,0.249,0.2474,0.253,0.2514,0.2486,0.2514,0.2513,0.2555,0.256,0.2574,0.262,0.2623,0.2601,0.2603,0.2604,0.2605,0,0,0,0,0,0,0,0.2354,0.2362,0.2442,0.2435,0.2438,0.2445,0.2453,0.2485,0.2521,0.2489,0.2491,0.2499,0.2556,0.2571,0.2576,0.2624,0.2601,0.2604,0.2606,0.2607,0.2695,0.2695,0,0,0,0,0,0,0.2346,0.2359,0.244,0.2444,0.2397,0.2448,0.2456,0.2474,0.2521,0.2528,0.2499,0.25,0.2566,0.2572,0.2579,0.2612,0.2604,0.2607,0.2609,0.2695,0.2695,0.2696,0,0,0,0,0,0,0.2343,0.2353,0.2437,0.2402,0.2413,0.245,0.247,0.2476,0.2491,0.2529,0.2536,0.2507,0.2566,0.2574,0.2607,0.2615,0.2609,0.2612,0.2694,0.2695,0.2695,0.2679,0,0,0,0,0,0,0.234,0.2352,0.2362,0.2402,0.2415,0.2464,0.247,0.2478,0.2496,0.2498,0.2538,0.2545,0.2566,0.2602,0.261,0.262,0.2614,0.2694,0.2694,0.2695,0.2679,0.2679,0.2679,0,0,0,0,0,0.2336,0.2354,0.2362,0.2372,0.2428,0.2464,0.2472,0.2496,0.2497,0.2507,0.2532,0.2544,0.2613,0.2605,0.2615,0.2625,0.2693,0.2694,0.2695,0.2679,0.2679,0.2679,0,0,0,0,0,0,0.2314,0.236,0.2369,0.2401,0.2428,0.2469,0.2483,0.2495,0.2523,0.2524,0.2553,0.2562,0.2592,0.2612,0.2602,0.2652,0.2654,0.2657,0.2639,0.2639,0.2639,0.2634,0.2617,0,0,0,0,0,0.2312,0.2337,0.2377,0.2401,0.2414,0.2446,0.2462,0.2479,0.2509,0.2521,0.2547,0.2576,0.2605,0.2623,0.2651,0.2682,0.2692,0.2694,0.2694,0.2693,0.2696,0.2715,0.2716,0.2699,0.2699,0.2699,0,0,0.231,0.2338,0.2352,0.2397,0.242,0.2446,0.2456,0.2482,0.2502,0.2525,0.2557,0.2578,0.2612,0.2644,0.266,0.2662,0.2703,0.2695,0.2694,0.2697,0.2716,0.2717,0.2719,0.2699,0.2699,0.2699,0,0,0.2319,0.2343,0.2366,0.2389,0.2424,0.2445,0.2451,0.249,0.2504,0.2537,0.2555,0.2579,0.2627,0.2651,0.2669,0.2688,0.27,0.2696,0.2696,0.2714,0.2716,0.2717,0.2724,0.2727,0.2698,0.2698,0.2698,0,0.2312,0.2351,0.2376,0.2402,0.2422,0.2443,0.2467,0.2488,0.2531,0.2544,0.2545,0.2607,0.2631,0.2669,0.2674,0.2688,0.2696,0.2692,0.2713,0.2715,0.2717,0.2724,0.2727,0.2697,0.2697,0.2697,0.2698,0,0.2341,0.2368,0.2382,0.2423,0.2444,0.2469,0.2498,0.2516,0.2531,0.2552,0.2586,0.2616,0.2651,0.2661,0.2675,0.2701,0.2702,0.2708,0.271,0.2717,0.2725,0.2728,0.2696,0.2697,0.2697,0.2697,0,0,0.2338,0.2392,0.2397,0.2416,0.2457,0.2479,0.2505,0.2539,0.2554,0.2583,0.2606,0.2646,0.2652,0.2673,0.269,0.2706,0.2719,0.271,0.2711,0.2712,0.2752,0.2747,0.275,0.2728,0.2728,0.2729,0.2749,0,0.2353,0.2401,0.2424,0.2461,0.2487,0.2508,0.2531,0.2558,0.2579,0.2604,0.2627,0.2655,0.266,0.2673,0.2689,0.2714,0.2728,0.2713,0.275,0.2751,0.2742,0.2754,0.275,0.2767,0.2752,0.2753,0.2753,0,0.2377,0.2406,0.2446,0.2484,0.2496,0.2516,0.2549,0.2573,0.2605,0.2618,0.2642,0.2659,0.2687,0.2687,0.2727,0.2717,0.2733,0.2748,0.2749,0.2754,0.2753,0.276,0.2773,0.2776,0.2758,0.2757,0.2757,0,0.2372,0.2421,0.2451,0.2467,0.2512,0.2525,0.2545,0.2576,0.2596,0.2625,0.2638,0.267,0.2688,0.2713,0.2738,0.2735,0.2776,0.2778,0.2789,0.2788,0.2797,0.2797,0.2814,0.2806,0.2806,0.2806,0.2806,0,0.2387,0.2411,0.245,0.2468,0.2496,0.2523,0.2549,0.257,0.2598,0.2622,0.2642,0.2664,0.2695,0.2721,0.2741,0.2772,0.278,0.2792,0.2797,0.2791,0.2789,0.2803,0.2803,0.2807,0.2807,0.2807,0.2807,0,0.2386,0.2413,0.2448,0.2488,0.2498,0.2517,0.2551,0.2571,0.2592,0.2622,0.263,0.2664,0.2695,0.2723,0.2764,0.2778,0.281,0.2816,0.2799,0.2802,0.2813,0.2812,0.284,0.2846,0.2833,0.2833,0.2833,0,0.2395,0.2414,0.2455,0.2473,0.2492,0.2519,0.2539,0.2566,0.2586,0.2624,0.2639,0.2672,0.27,0.2749,0.2778,0.281,0.2817,0.2825,0.2822,0.2816,0.2819,0.2818,0.282,0.2825,0.2825,0.2825,0.2825,0,0.2407,0.2419,0.2447,0.2479,0.2502,0.2529,0.2557,0.257,0.2602,0.2623,0.2656,0.2677,0.272,0.2753,0.2788,0.2809,0.2823,0.2826,0.283,0.2825,0.2815,0.2821,0.28,0.2825,0.2825,0.2825,0.2825,0.2825,0.2411,0.243,0.2462,0.2492,0.2516,0.2541,0.2562,0.2586,0.2613,0.265,0.2664,0.2698,0.273,0.2779,0.2799,0.2826,0.2828,0.2835,0.2836,0.2838,0.2837,0.2809,0.2832,0.2833,0.2833,0.2833,0.2833,0,0.2425,0.2447,0.2475,0.2513,0.2537,0.2547,0.2578,0.2598,0.2627,0.2656,0.2683,0.2721,0.2753,0.2784,0.2817,0.2833,0.284,0.2841,0.2841,0.2846,0.2833,0.2826,0.2835,0.2835,0.2835,0.2835,0.2835,0.2835,0.2435,0.2467,0.2483,0.2527,0.2549,0.2582,0.2599,0.2622,0.2645,0.2687,0.2713,0.2733,0.2763,0.2799,0.2829,0.2838,0.285,0.2849,0.2859,0.2847,0.2846,0.2846,0.284,0.2851,0.2851,0.287,0.287,0.287]},{"header":{"parameterUnit":"m.s-1","parameterCategory":1,"la1":30.2991,"la2":30.254,"lo1":-89.0895,"lo2":-89.0444,"dy":0.0017,"dx":0.0017,"nx":28,"ny":28,"refTime":"2023-11-08T09:00:00:Z","depth":0,"parameterNumber":3,"parameterNumberName":"V-component_of_WINDS"},"data":[0,0,0,0,0,0,0,0,0,0,0,0,0,0,0,0,0,0,0,0,0,0,0,0,0,0,0,0,0,0,0,0,0,0,0,0,0,0,0,0,0,0,0,0,0,0,0,0,0,0,0,0,0,0,0,0,0,0,2.2305,2.2305,0,2.2311,2.2311,2.2311,2.2278,2.2277,2.2276,2.2275,2.2281,2.2282,2.2283,0,0,0,0,0,0,0,0,0,0,0,0,0,2.2265,2.2266,2.2305,2.2305,2.2305,2.2311,2.2311,2.2311,2.2278,2.2277,2.2276,2.2275,2.228,2.2282,2.2283,0,0,0,0,0,0,0,0,0,0,0,0,0,2.2278,2.2266,2.2305,2.2289,2.2288,2.2311,2.2311,2.2311,2.2279,2.2277,2.2276,2.2274,2.228,2.2281,2.2283,2.2321,0,0,2.2288,2.2288,0,0,0,0,0,0,0,0,2.2277,2.2279,2.2292,2.229,2.2289,2.2292,2.2299,2.2314,2.2279,2.2282,2.2275,2.2274,2.2286,2.2287,2.2291,2.2321,2.2321,2.2288,2.2289,2.2289,2.229,0,0,0,0,0,0,0,2.2276,2.2279,2.2307,2.2292,2.229,2.2282,2.2282,2.2302,2.2292,2.2282,2.2279,2.2281,2.2285,2.229,2.2291,2.2321,2.2288,2.2289,2.229,2.2291,2.2385,2.2386,0,0,0,0,0,0,2.2277,2.2278,2.2307,2.2307,2.2279,2.2284,2.2284,2.2293,2.2291,2.229,2.2282,2.2279,2.2288,2.2289,2.2291,2.2337,2.2289,2.2291,2.2292,2.2383,2.2385,2.2387,0,0,0,0,0,0,2.2277,2.228,2.2307,2.2292,2.2295,2.2286,2.2296,2.2294,2.2298,2.2292,2.229,2.2289,2.2287,2.2289,2.2314,2.2336,2.2292,2.2293,2.2382,2.2384,2.2386,2.2427,0,0,0,0,0,0,2.2275,2.228,2.2294,2.2293,2.2296,2.233,2.2297,2.2295,2.2301,2.2298,2.2297,2.2296,2.2286,2.2312,2.2316,2.2338,2.2294,2.238,2.2383,2.2385,2.2424,2.2431,2.2437,0,0,0,0,0,2.2274,2.2305,2.2295,2.2299,2.2313,2.2331,2.2333,2.2321,2.2303,2.2318,2.2313,2.2296,2.2333,2.2315,2.2319,2.2341,2.2378,2.2382,2.2385,2.2421,2.243,2.2437,0,0,0,0,0,0,2.2308,2.2304,2.2293,2.2325,2.2329,2.2326,2.2343,2.233,2.2339,2.2335,2.2319,2.2319,2.2348,2.2347,2.2327,2.2379,2.2352,2.2357,2.2379,2.2386,2.2393,2.2393,2.2295,0,0,0,0,0,2.232,2.2335,2.233,2.2358,2.2361,2.2352,2.2359,2.235,2.2353,2.2355,2.2352,2.2356,2.2369,2.2377,2.2388,2.2424,2.2424,2.2441,2.2447,2.2453,2.2457,2.2477,2.2485,2.2399,2.2399,2.2399,0,0,2.2343,2.2343,2.2353,2.2365,2.2367,2.2384,2.2354,2.2372,2.2384,2.2357,2.2382,2.238,2.2383,2.2415,2.2428,2.2415,2.2481,2.2457,2.2462,2.2463,2.2482,2.249,2.2497,2.2401,2.2401,2.24,0,0,2.2394,2.2395,2.2419,2.2422,2.2426,2.242,2.2426,2.2426,2.2424,2.2448,2.2429,2.2443,2.2465,2.2469,2.2473,2.2528,2.2513,2.2532,2.2565,2.2585,2.2592,2.2598,2.2619,2.2626,2.2536,2.2536,2.2536,0,2.2422,2.2447,2.2433,2.2453,2.246,2.2437,2.2462,2.2466,2.2473,2.2478,2.2463,2.2491,2.2491,2.2524,2.2537,2.2541,2.2548,2.2532,2.2592,2.2598,2.2603,2.2623,2.2631,2.2538,2.2538,2.2538,2.2538,0,2.2482,2.2499,2.2518,2.2527,2.2535,2.2558,2.2548,2.2559,2.2549,2.2544,2.257,2.257,2.2582,2.2589,2.2578,2.262,2.2612,2.2595,2.2568,2.2614,2.2633,2.264,2.2542,2.2541,2.254,2.254,0,0,2.2554,2.2557,2.2564,2.2569,2.2572,2.2585,2.2606,2.2619,2.2628,2.2634,2.2653,2.2672,2.2657,2.2663,2.2653,2.267,2.2715,2.2651,2.2651,2.2664,2.2763,2.2777,2.2785,2.2705,2.2706,2.2707,2.2763,0,2.2605,2.2643,2.2633,2.2671,2.2687,2.2667,2.2686,2.269,2.2687,2.2701,2.2697,2.2712,2.269,2.2693,2.2709,2.2706,2.2735,2.2702,2.2723,2.2724,2.2724,2.2795,2.2809,2.2862,2.277,2.2771,2.2772,0,2.267,2.268,2.272,2.2722,2.2729,2.2746,2.2757,2.277,2.2775,2.2772,2.2779,2.2766,2.2788,2.2761,2.2792,2.2769,2.2777,2.2777,2.2779,2.2781,2.2751,2.28,2.2878,2.2886,2.2783,2.2782,2.2781,0,2.272,2.2743,2.2771,2.2775,2.2778,2.2791,2.2793,2.2796,2.2805,2.2815,2.282,2.2832,2.2839,2.2848,2.2839,2.282,2.2872,2.2844,2.2871,2.2871,2.2883,2.2882,2.2964,2.2886,2.2886,2.2886,2.2886,0,2.2779,2.2805,2.2794,2.2811,2.2839,2.2827,2.2856,2.2855,2.2859,2.2875,2.2858,2.2874,2.2861,2.2876,2.2869,2.2896,2.2899,2.2897,2.2895,2.29,2.29,2.2905,2.2902,2.2888,2.2888,2.2887,2.2887,0,2.284,2.2834,2.2863,2.2864,2.2865,2.2886,2.2887,2.2903,2.2899,2.2921,2.2925,2.2919,2.2936,2.2928,2.2945,2.2941,2.2977,2.2969,2.2975,2.2974,2.3002,2.3,2.3091,2.3103,2.3016,2.3016,2.3017,0,2.2879,2.2898,2.2902,2.2913,2.2916,2.2933,2.2942,2.2931,2.2941,2.2949,2.2964,2.298,2.2992,2.302,2.3018,2.3031,2.3025,2.3056,2.3027,2.3031,2.3027,2.3026,2.3029,2.3062,2.3063,2.3063,2.3064,0,2.2948,2.2945,2.2959,2.2972,2.2984,2.2994,2.3002,2.3012,2.3001,2.3014,2.3031,2.3041,2.3059,2.3076,2.3088,2.309,2.3076,2.3073,2.3081,2.3086,2.3089,2.3089,2.2993,2.3071,2.3071,2.307,2.307,2.3069,2.3,2.3017,2.3023,2.304,2.3045,2.3054,2.307,2.3069,2.3083,2.3098,2.3091,2.3112,2.3118,2.3133,2.3137,2.3153,2.3141,2.3151,2.3154,2.3157,2.3161,2.3086,2.3155,2.3155,2.3155,2.3155,2.3154,0,2.307,2.3073,2.3089,2.3102,2.3115,2.3101,2.311,2.3123,2.3142,2.3148,2.3161,2.3182,2.3198,2.3197,2.3212,2.3226,2.322,2.323,2.323,2.3231,2.3171,2.3164,2.3235,2.3235,2.3235,2.3235,2.3235,2.3235,2.3108,2.3137,2.3134,2.3166,2.3169,2.319,2.3197,2.3205,2.321,2.3235,2.3249,2.3248,2.3252,2.3268,2.3282,2.3282,2.3288,2.3302,2.3299,2.3243,2.3235,2.3227,2.3221,2.3303,2.3303,2.3358,2.3358,2.3359]}]]